Regional Weather Roundup
Issued by NWS Upton, NY

Current Version | Previous Version | Graphics & Text | Print | Product List | Glossary Off
Versions: 1 2 3 4 5 6 7 8 9 10 11 12 13 14 15 16 17 18 19 20 21 22 23 24 25 26 27 28

000
ASUS41 KOKX 251909
RWROKX

REGIONAL WEATHER ROUNDUP
NATIONAL WEATHER SERVICE NEW YORK NY
300 PM EDT MON SEP 25 2017

NOTE: "FAIR" INDICATES FEW OR NO CLOUDS BELOW 12,000 FEET WITH NO
SIGNIFICANT WEATHER AND/OR OBSTRUCTIONS TO VISIBILITY.

NYZ071-072-176-178-NJZ106-104-252000-
NEW YORK CITY METRO AREA

CITY           SKY/WX    TMP DP  RH WIND       PRES   REMARKS
Central Park   SUNNY     87  65  47 E62       30.05F
Bronx Bot Gard   N/A     84  64  51 E3        30.04F
LaGuardia APRT MOSUNNY   84  68  58 NE9       30.02F
Kennedy INTL   MOSUNNY   81  59  47 S10       30.05S
Breezy Point     N/A     75 N/A N/A S8          N/A
Newark/Liberty MOSUNNY   89  66  46 E8        30.01F HX  91
Teterboro      SUNNY     89  66  46 E7        30.01F HX  91
$$

NYZ177-179-078>081-252000-
LONG ISLAND NEW YORK

CITY           SKY/WX    TMP DP  RH WIND       PRES   REMARKS
Jones Beach      N/A     73 N/A N/A S8          N/A
Matinecock PT    N/A     75 N/A N/A NE10        N/A
Farmingdale    SUNNY     83  64  52 S9        30.03F
MacArthur/ISP  MOSUNNY   82  65  56 SE9       30.03F
Shirley        SUNNY     80  68  66 SE9       30.05F
Mt Sinai Harb    N/A     77 N/A N/A E8          N/A
Westhampton    SUNNY     76  66  71 VRB7      30.06F
East Hampton   FAIR      74  66  77 S3        30.05S
Montauk          N/A     76  65  68 E5        30.07F
$$

NYZ052-065-067-252000-
HUDSON VALLEY

CITY           SKY/WX    TMP DP  RH WIND       PRES   REMARKS
White Plains   MOSUNNY   86  65  49 VRB3      30.04F
Larchmont Harb   N/A     75 N/A N/A N7          N/A
Croton On Huds   N/A     86 N/A N/A CALM        N/A
Newburgh       MOSUNNY   90  70  51 VRB3      30.06S HX  95
Montgomery     SUNNY     89  70  53 N7        30.03F HX  94
Poughkeepsie   MOSUNNY   88  68  51 CALM      30.01F HX  91
Albany         MOSUNNY   90  67  46 N6        30.04F HX  93
$$

NJZ001-105-106-008-010-013-015-019>022-104-252000-
NEW JERSEY

CITY           SKY/WX    TMP DP  RH WIND       PRES   REMARKS
Newark/Liberty MOSUNNY   89  66  46 E8        30.01F HX  91
Teterboro      SUNNY     89  66  46 E7        30.01F HX  91
Caldwell       SUNNY     89  70  53 VRB3      30.02F HX  94
Somerville     NOT AVBL
Linden         NOT AVBL
Perth Amboy      N/A     79 N/A N/A E10         N/A
Sussex         SUNNY     88  69  53 E6        30.04F HX  92
Andover          N/A     88  70  55 NE3       30.04F HX  93
Trenton        SUNNY     89  69  51 E10       30.00F HX  93
Millville      MOSUNNY   89  69  51 VRB7      30.00F HX  93
Atlantic City  SUNNY     81  65  58 E10       30.02F
Wrightstown    NOT AVBL
Toms River     SUNNY     84  66  54 VRB7      30.03F
Belmar         SUNNY     81  62  52 E8        30.04F
$$

PAZ047>061-062-071-252000-
EASTERN PENNSYLVANIA

CITY           SKY/WX    TMP DP  RH WIND       PRES   REMARKS
Philadelphia   MOSUNNY   90  66  45 VRB5      30.00F HX  92
Allentown      SUNNY     89  68  49 N3        30.02F HX  93
Scranton       MOSUNNY   91  67  44 CALM      30.05F HX  94
$$

CTZ002-004>006-009-010-012-RIZ004-006-007-MAZ004-011-015-252000-
SOUTHERN NEW ENGLAND
 IN CT

CITY           SKY/WX    TMP DP  RH WIND       PRES   REMARKS
Bradley INTL   MOSUNNY   88  68  51 N5        30.04F HX  91
Hartford       MOSUNNY   88  69  53 SE3       30.02F HX  92
Danbury        PTSUNNY   88  68  51 VRB5      30.05F HX  91
Wtrbury/Oxford MOSUNNY   85  68  56 E6        30.07F
Norwalk Harbor   N/A     73 N/A N/A NE6         N/A
Bridgeport     SUNNY     79  66  64 E7        30.04F
Meriden        PTSUNNY   88  65  46 VRB3      30.03F HX  90
New Haven      MOSUNNY   82  63  52 SE6       30.05F
Chester        FAIR      86  64  48 S6        30.06F
Groton         SUNNY     76  64  66 SE7       30.05F
Wilimantic     PTSUNNY   88  67  49 E5        30.04F HX  91

 IN RI

CITY           SKY/WX    TMP DP  RH WIND       PRES   REMARKS
Providence     MOSUNNY   81  68  64 S13       30.06F
Block Island   SUNNY     72  67  84 NE6       30.07F
Westerly       SUNNY     74  66  76 SE6       30.07F
 IN MA

CITY           SKY/WX    TMP DP  RH WIND       PRES   REMARKS
Boston         MOSUNNY   77  61  57 E10       30.07F
Worcester      MOSUNNY   83  66  56 E6        30.09F
Westfield      SUNNY     90  67  46 SE3       30.03F HX  93
Provincetown   SUNNY     69  64  84 NE9       30.07F
Nantucket      CLOUDY    70  67  90 E6        30.06F
$$

ANZ330-335-338-340-345-350-353-355-252000-
COASTAL MARINE OBSERVATIONS


STATION/POSITION TIME  SKY/WX   TEMP    WIND        PRES    VSBY  WAVE
                                AIR SEA DIR/SP/G                  HT/PER
                 (UTC)          (F)     (DEG/KT/KT) (MB)    (MI)  (FT/S)
NY HARB ENTRANCE 1750            73 74  110/  8/  8 1016.6          4/15
20 S FIRE ISLAND 1750            68 70  100/  6/  8 1017.8          5/14
GREAT SOUTH BAY  1830            72 74  140/  6/  8   N/A
23 SSW MONTAUK P 1750            64 67              1018.3          6/14
15 E BARNEGAT LI 1830               72                N/A           4/14
HUDSON CANYON    1750            66 69   40/ 10/ 12 1016.5          8/15
KINGS POINT      1824            78 73   60/  5/  7 1017.7
EXECUTION ROCKS  1845            76      30/  6/  8   N/A
WESTERN LI SOUND NOT AVBL
CENTRAL LI SOUND 1845            72      90/  6/  8   N/A           0
EASTERN LI SOUND NOT AVBL
ROBBINS REEF     1830            75     160/ 17/ 17 1017.5
$$


>>>>>>>>>>>>>>>>>>>>>>>>>>>> KEY <<<<<<<<<<<<<<<<<<<<<<<<<<<
>                                                          <
>     SKY/WX - Sky Condition/Present Weather               <
>     TMP    - Temperature in Fahrenheit                   <
>     DP     - Dew Point in Fahrenheit                     <
>     RH     - Relative Humidity in Percent                <
>     WIND   - Direction (from) and Speed in MPH           <
>     PRES   - Mean Sea Level Pressure (inches of Hg)      <
>     WCI    - Wind Chill Index                            <
>     VSB    - VISIBILITY IN MILES                         <
>     HX     - HEAT INDEX                                  <
>     TC     - TEMPERATURE IN CELSIUS                      <
>     VRB    - VARIABLE WIND DIRECTION                     <
>                                                          <
>>>>>>>>>>>>>>>>>>>>>>>>>>>> KEY <<<<<<<<<<<<<<<<<<<<<<<<<<<




USA.gov is the U.S. government's official web portal to all federal, state and local government web resources and services.